Карточка аэропорта UAOO

Внимание!
Информация на этой странице в стадии наполнения.
Если вы не увидели какой-то информации, или заметили неточность - пожалуйста сообщите нам!
Спасибо!
Команда RU-STAFF
Название аэропортаКызылорда
Название аэропорта (англ.)Kyzylorda
Превышение433 ft. (132 m.)
Координаты44°42.414', 65°35.55'
Высота перехода10000ft
Эшелон переходаFL120, QNH<733:FL130
Коды ответчика3474-3475, 7270-7273
Зона ОрВДШымкент РПИ (UAII)
Данные METARUAOO 200100Z 29003MPS 9999 SCT046CB 18/14 Q1002 NOSIG RMK QFE740/0987
Проноз погоды (TAF)UAOO 192315Z 2000/2009 27007MPS 9999 SCT040CB BKN100
NOTAMshow/hide NOTAM
AWOS   TABLE

Информация о ВПП

ВПП Длина ВПП (м.) Покрытие Курс ВПП Частота ILS
232700Асфальтобетон241 
052700Асфальтобетон61111.1

Диспетчерские позиции




Спутниковое изображение